Location: Observatoire
(46.1952°N, 5.3391°E)
Time: 14:10:26
(UTC+01:00)

A-11 Canister half - Pass Details

Date: 19 February 2026
Orbit: 1513 x 1686 km, 47.2° (Epoch: 17 March)

Event Time Altitude Azimuth Distance (km) Brightness Sun altitude
Rises 01:34:51 0° 283° (WNW) 4,912 - -54.0°
Reaches altitude 10° 01:38:02 10° 283° (WNW) 3,907 - -53.8°
Maximum altitude 01:48:04 86° 197° (SSW) 1,623 - -53.2°
Drops below altitude 10° 01:57:42 10° 110° (ESE) 3,765 - -52.5°
Exits shadow 02:00:19 - 110° (ESE) 4,603 11.6 -52.3°
Sets 02:00:42 0° 110° (ESE) 4,726 11.6 -52.3°
